Home > Weather > Kalgoorlie > Past weeks

Flag for Australia Past Weather in Kalgoorlie, Western Australia, Australia — Yesterday and Last 2 Weeks

Now
55 °F

Rain. Cloudy.


Feels Like: 52 °F
Forecast: 47 / 53 °F
Wind: 12 mph from North

Location: Kalgoorlie Boulder Amo

Current Time: Aug 27, 2016 at 4:29:44 PM

Latest Report: Aug 27, 2016 at 4:00 PM


Visibility: N/A

Pressure: 29.65 "Hg

Humidity: 94%

Dew Point: 54 °F

Location of KalgoorlieLocation

Past Weather in Kalgoorlie — Graph

°F

Kalgoorlie Temperature Yesterday

Maximum temperature yesterday: 64 °F (at 3:30 PM)
Minimum temperature yesterday: 45 °F (at 5:00 AM)
Average temperature yesterday: 56 °F

High & Low Weather Summary for the Past Weeks

 TemperatureHumidityPressure
High79 °F (Aug 17, 10:57 AM)100% (Aug 21, 2:00 AM)30.36 "Hg (Aug 21, 2:00 AM)
Low32 °F (Aug 19, 6:00 AM)18% (Aug 15, 11:30 AM)29.62 "Hg (Aug 17, 4:00 PM)
Average54 °F56%30.07 "Hg
* Reported Aug 12 3:00 PM — Aug 27 3:00 PM, Kalgoorlie, Weather by CustomWeather, © 2016

Note: Actual official high and low records may vary slightly from our data, if they occured in-between our weather recording intervals... More about our weather records

Advertising

Kalgoorlie Weather History for the Previous 24 Hours

Scroll right to see more
 ConditionsComfort  
Time TempWeatherWind HumidityBarometerVisibility
3:00 PM
Sat, Aug 27
55 °FSprinkles. Overcast.10 mph88%29.65 "HgN/A
2:00 PM57 °FRain. Cloudy.12 mph82%29.65 "HgN/A
1:00 PM57 °FDrizzle. More clouds than sun.20 mph72%29.68 "Hg5 mi
12:30 PM61 °FOvercast.21 mph55%29.68 "HgN/A
12:00 PM61 °FSprinkles. Mostly cloudy.22 mph59%29.68 "HgN/A
11:30 AM68 °FLight rain. More clouds than sun.21 mph38%29.65 "HgN/A
11:04 AM68 °FOvercast.21 mph38%29.65 "HgN/A
10:00 AM70 °FPartly sunny.20 mph29%29.68 "HgN/A
9:00 AM66 °FSunny.21 mph28%29.71 "HgN/A
8:00 AM63 °FSunny.13 mph27%29.71 "HgN/A
7:30 AM59 °FSunny.13 mph29%29.71 "HgN/A
7:00 AM59 °FSunny.13 mph27%29.71 "HgN/A
6:00 AM57 °FSunny.10 mph29%29.71 "HgN/A
5:30 AM59 °FSunny.12 mph25%29.71 "HgN/A
5:00 AM59 °FClear.13 mph25%29.71 "HgN/A
4:00 AM61 °FClear.15 mph22%29.71 "HgN/A
3:30 AM61 °FClear.17 mph20%29.71 "HgN/A
3:00 AM61 °FClear.15 mph22%29.71 "HgN/A
2:00 AM61 °FClear.13 mph22%29.74 "HgN/A
1:30 AM61 °FClear.13 mph22%29.77 "HgN/A
1:00 AM59 °FClear.13 mph27%29.77 "HgN/A
12:30 AM59 °FClear.12 mph29%29.80 "HgN/A
12:00 AM59 °FClear.9 mph31%29.83 "HgN/A
11:30 PM
Fri, Aug 26
57 °FClear.9 mph33%29.83 "HgN/A
11:00 PM57 °FClear.9 mph36%29.83 "HgN/A
10:30 PM59 °FClear.10 mph31%29.86 "HgN/A
10:00 PM59 °FClear.10 mph34%29.86 "HgN/A
9:00 PM57 °FClear.9 mph39%29.89 "HgN/A
8:30 PM57 °FClear.9 mph39%29.92 "HgN/A
8:00 PM55 °FClear.6 mph44%29.92 "HgN/A
7:00 PM59 °FClear.5 mph39%29.92 "HgN/A
6:00 PM61 °FClear.5 mph36%29.92 "HgN/A
5:00 PM63 °FClear.7 mph32%29.92 "HgN/A
4:30 PM63 °FSunny.8 mph32%29.92 "HgN/A
4:00 PM63 °FSunny.9 mph30%29.92 "HgN/A
Weather by CustomWeather, © 2016

See weather overviewHow to use our weather pages